SUPERVIEW NEO-1 02

导读

SUPERVIEW NEO-1 02是中国四维测绘科技打造的高分辨率商业光学遥感卫星,于2022年4月29日成功发射。卫星搭载先进光学成像系统,原始空间分辨率达0.3米,达到国际现役商业光学卫星顶尖水平,可服务自然资源调查、城市安全监测、应急灾害管理等领域,标志着中国商业光学遥感技术跻身全球前列,曾在全球商业遥感光电能力排名中位居前列。

Basic Information
目录编号:
52322
目录名称:
SUPERVIEW NEO-1 02
国际标识:
2022-043C
轨道中心:
EARTH
卫星名称:
SUPERVIEW NEO-1 02
卫星全名:
--
卫星状态:
在轨 (已飞行1506 天)
发射日期:
2022-04-29 UTC
国别 :
中国 (CN)
星等 :
--
Orbit Information
数据来源 国际轨道数据 AOE轨道数据
星历时间 2026-06-13T05:17:31+0800
6小时前
查看轨道信息
2026-06-11T01:00:00+0800
2天前
查看轨道信息
半长轴 6894.766km 6894.839km
偏心率 0.0001926 0.0001999
轨道倾角 97.341° 97.342°
近地点辐角 35.821° 38.532°
升交点赤经 236.820° 234.712°
平近点角 324.315° 314.714°
近地点 515.301km 515.323km
远地点 517.957km 518.081km
周期 94.960分钟 94.961分钟
每日圈数 15.16434 15.164099
Detailed Information
使用方式:
暂无
2D Orbit Map
3D Orbit Map
Orbit Altitude Analysis Chart
Orbit Inclination Analysis Chart
Orbit Comprehensive Analysis Chart
View Comprehensive Chart